This demonstration page uses our WeatherBlox Daily Observations layout. Learn more.

Left ArrowRight Arrow

Hourly Observations for April 14, 2019

Temp ( °F °C ) Dew Point ( °F °C ) Humidity (%) Winds ( mph kmh ) Pressure ( in mb ) Visibility ( mi km ) Precip ( " mm )
12:53 am 00:53 Clear 74 23.3 67 19.4 79 79 SSE 13 20 29.80 1009 10 16 0.00 0.00
1:53 am 01:53 Cloudy 73 22.8 66 18.9 79 79 SSE 14 22 29.81 1010 10 16 0.00 0.00
2:53 am 02:53 Mostly Cloudy 72 22.2 67 19.4 84 84 SSE 13 20 29.79 1009 10 16 0.00 0.00
3:53 am 03:53 Mostly Cloudy 72 22.2 67 19.4 84 84 SSE 9 15 29.77 1008 10 16 0.00 0.00
4:11 am 04:11 Mostly Cloudy 72 22.2 67 19.4 84 84 SSE 8 13 29.77 1008 10 16 0.00 0.00
4:53 am 04:53 Mostly Cloudy 71 21.7 67 19.4 87 87 SE 10 17 29.75 1008 10 16 0.00 0.00
5:09 am 05:09 Partly Cloudy 71 21.7 67 19.4 87 87 SSE 10 17 29.74 1007 10 16 0.00 0.00
5:53 am 05:53 Clear 70 21.1 67 19.4 90 90 SSE 14 22 29.72 1006 10 16 0.00 0.00
6:53 am 06:53 Mostly Cloudy 71 21.7 67 19.4 87 87 SSE 12 19 29.71 1006 10 16 0.00 0.00
7:35 am 07:35 Mostly Cloudy 71 21.7 67 19.4 87 87 S 12 19 29.71 1006 10 16 0.00 0.00
7:53 am 07:53 Mostly Cloudy 70 21.1 67 19.4 90 90 SE 14 22 29.66 1004 10 16 0.00 0.00
8:01 am 08:01 Mostly Cloudy with Light Rain 70 21.1 67 19.4 90 90 SSE 16 26 29.67 1005 10 16 0.00 0.03
8:49 am 08:49 Mostly Cloudy with Light Rain 72 22 68 20 88 88 SSE 10 17 29.68 1005 10 16 0.00 0.03
8:53 am 08:53 Cloudy with Light Rain 70 21.1 68 20 93 93 S 10 17 29.69 1005 10 16 0.01 0.25
9:48 am 09:48 Cloudy with Rain 70 21 68 20 94 94 S 13 20 29.71 1006 4 6 0.16 4.06
9:53 am 09:53 Cloudy with Rain 70 21.1 68 20 93 93 S 10 17 29.71 1006 4 6 0.18 4.57
10:13 am 10:13 Cloudy with Heavy Rain 69 20.6 69 20.6 100 100 S 13 20 29.72 1006 3 4 0.13 3.30
10:21 am 10:21 Cloudy with Heavy Rain 69 20.6 69 20.6 100 100 S 8 13 29.71 1006 2 3 0.19 4.83
10:23 am 10:23 Cloudy with Rain 69 20.6 69 20.6 100 100 S 9 15 29.71 1006 2 3 0.20 5.08
10:53 am 10:53 Cloudy with Rain 70 21.1 69 20.6 97 97 S 7 11 29.69 1005 2 3 0.34 8.64
11:53 am 11:53 Cloudy with Heavy Rain 70 21.1 69 20.6 97 97 S 13 20 29.66 1004 2 3 0.14 3.56
12:16 pm 12:16 Cloudy with Nearby Thunderstorms 70 21.1 68 20 93 93 SSW 20 31 29.67 1005 2 3 0.24 6.10
12:31 pm 12:31 Cloudy with Light Rain 68 20 66 18.9 93 93 SW 13 20 29.67 1005 2 3 0.26 6.60
12:53 pm 12:53 Mostly Cloudy 68 20 67 19.4 96 96 SSW 8 13 29.66 1004 10 16 0.27 6.86
1:53 pm 13:53 Mostly Cloudy 74 23.3 70 21.1 88 88 S 10 17 29.61 1003 10 16 0.00 0.00
2:53 pm 14:53 Mostly Cloudy 77 25 69 20.6 77 77 SSW 12 19 29.58 1002 10 16 0.00 0.00
3:00 pm 15:00 Mostly Cloudy 77 25 69 20.6 77 77 S 16 26 29.56 1001 10 16 0.00 0.00
3:53 pm 15:53 Mostly Cloudy 79 26.1 65 18.3 62 62 S 20 31 29.55 1001 10 16 0.00 0.00
4:53 pm 16:53 Mostly Cloudy 77 25 62 16.7 60 60 S 15 24 29.53 1000 10 16 0.00 0.00
5:51 pm 17:51 Partly Cloudy 79 26 63 17 58 58 S 12 19 29.52 1000 10 16 0.00 0.00
5:53 pm 17:53 Partly Cloudy 78 25.6 63 17.2 60 60 S 12 19 29.53 1000 10 16 0.00 0.00
6:22 pm 18:22 Cloudy with Nearby Thunderstorms 74 23.3 64 17.8 71 71 SW 10 17 29.53 1000 10 16 0.00 0.03
6:37 pm 18:37 Cloudy with Rain 68 20 65 18.3 90 90 SW 13 20 29.57 1001 3 4 0.07 1.78
6:45 pm 18:45 Cloudy with Heavy Rain 66 18.9 63 17.2 90 90 SW 15 24 29.57 1001 1 2 0.16 4.06
6:53 pm 18:53 Cloudy with Heavy Rain 67 19.4 61 16.1 81 81 SSW 22 35 29.57 1001 3 4 0.24 6.10
7:11 pm 19:11 Partly Cloudy 67 19.4 62 16.7 84 84 SW 6 9 29.57 1001 10 16 0.05 1.27
7:53 pm 19:53 Sunny 67 19.4 59 15 76 76 W 12 19 29.61 1003 10 16 0.05 1.27
8:53 pm 20:53 Partly Cloudy 63 17.2 51 10.6 65 65 W 14 22 29.67 1005 10 16 0.00 0.00
9:53 pm 21:53 Cloudy 60 15.6 49 9.4 67 67 W 10 17 29.74 1007 10 16 0.00 0.00
10:53 pm 22:53 Cloudy 58 14.4 49 9.4 72 72 WNW 20 31 29.78 1008 10 16 0.00 0.00
11:07 pm 23:07 Cloudy 56 13.3 49 9.4 77 77 W 18 30 29.81 1009 10 16 0.00 0.00
11:27 pm 23:27 Cloudy 55 12.8 48 8.9 77 77 WNW 15 24 29.82 1010 10 16 0.00 0.00
11:34 pm 23:34 Cloudy 55 12.8 48 8.9 77 77 W 15 24 29.83 1010 10 16 0.00 0.00
11:53 pm 23:53 Cloudy 54 12.2 47 8.3 77 77 W 14 22 29.82 1010 10 16 0.00 0.00

Powered by AerisWeather